New Roads False River Regiona, LA

8:33 PM CDT on October 13, 2019 (GMT -0500)
False River

Weather History for KHZR - June, 2019

Change the Weather History Date:

Thursday, June 6, 2019

  Actual Average (KBTR) Record (KBTR)
Temperature  
Mean Temperature - -  
Max Temperature - 88 °F 99 °F (1972)
Min Temperature - 69 °F 58 °F (1946)
Moisture  
Dew Point -    
Average Humidity    
Maximum Humidity    
Minimum Humidity    
Precipitation  
Precipitation 0.79 in - - ()
Sea Level Pressure  
Sea Level Pressure 29.75 in    
Wind  
Wind Speed 7 mph ()    
Max Wind Speed 20 mph    
Max Gust Speed 26 mph    
Visibility 8.8 miles    
Events Rain , Thunderstorm    
Averages and records for this station are not official NWS values.
T = Trace of Precipitation, MM = Missing Value Source: Averaged Metar Reports

Daily Weather History Graph

Daily Weather History Graph

Search for Another Location

Airport or City:

Astronomy

Jun. 06, 2019 Rise Set
Actual Time 6:02 AM CDT 8:06 PM CDT
Civil Twilight 5:35 AM CDT 8:34 PM CDT
Nautical Twilight 5:01 AM CDT 9:07 PM CDT
Astronomical Twilight 4:26 AM CDT 9:43 PM CDT
Moon 9:10 AM CDT (6/6) 11:27 PM CDT (6/6)
Length of Visible Light 14h 58m
Length of Day
14h 03m
Waxing Crescent, 14% of the Moon is Illuminated
Jun 6
Waxing Crescent
Jun 10
First Quarter
Jun 17
Full
Jun 25
Last Quarter
Jul 2
New

Hourly Weather History & Observations

Time (CDT) Temp. Dew Point Humidity Pressure Visibility Wind Dir Wind Speed Gust Speed Precip Events Conditions
12:34 AM - - N/A% 29.84 in 7.0 mi Calm Calm - 0.01 in Rain Rain
12:55 AM - - N/A% 29.83 in 7.0 mi ESE 5.8 mph - 0.02 in Rain , Thunderstorm Rain
1:14 AM - - N/A% 29.80 in 10.0 mi East 8.1 mph - 0.01 in Rain Rain
1:34 AM - - N/A% 29.82 in 10.0 mi Calm Calm - 0.02 in Rain Light Rain
1:54 AM - - N/A% 29.80 in 10.0 mi East 4.6 mph - 0.03 in Rain , Thunderstorm Light Thunderstorms and Rain
2:15 AM - - N/A% 29.80 in 7.0 mi Calm Calm - 0.01 in Rain Rain
2:34 AM - - N/A% 29.79 in 7.0 mi NE 4.6 mph - 0.02 in Rain Rain
2:55 AM - - N/A% 29.77 in 5.0 mi SE 15.0 mph 21.9 mph 0.03 in Rain Rain
3:34 AM - - N/A% 29.75 in 10.0 mi SE 13.8 mph 19.6 mph 0.02 in Rain , Thunderstorm Light Thunderstorms and Rain
3:55 AM - - N/A% 29.73 in 10.0 mi SE 9.2 mph 17.3 mph 0.03 in Thunderstorm Thunderstorm
4:35 AM - - N/A% 29.73 in 10.0 mi SE 11.5 mph - 0.03 in Rain , Thunderstorm Light Thunderstorms and Rain
4:54 AM - - N/A% 29.77 in 7.0 mi South 5.8 mph - 0.04 in Rain , Thunderstorm Rain
5:15 AM - - N/A% 29.73 in 7.0 mi SE 16.1 mph 21.9 mph 0.01 in Rain , Thunderstorm Rain
5:34 AM - - N/A% 29.74 in 7.0 mi SE 15.0 mph 24.2 mph 0.02 in Rain , Thunderstorm Light Thunderstorms and Rain
5:54 AM - - N/A% 29.74 in 7.0 mi SE 12.7 mph - 0.04 in Rain , Thunderstorm Thunderstorms and Rain
6:15 AM - - N/A% 29.76 in 2.0 mi ESE 19.6 mph 26.5 mph 0.02 in Rain , Thunderstorm Heavy Thunderstorms and Rain
6:34 AM - - N/A% 29.74 in 2.0 mi ENE 10.4 mph 21.9 mph 0.03 in Rain , Thunderstorm Heavy Thunderstorms and Rain
7:14 AM - - N/A% 29.75 in 1.2 mi WSW 9.2 mph - 0.02 in Rain Heavy Rain
7:54 AM - - N/A% 29.73 in 10.0 mi South 12.7 mph - 0.06 in Thunderstorm Overcast
8:15 AM - - N/A% 29.73 in 10.0 mi SSE 10.4 mph - 0.02 in   Overcast
8:35 AM - - N/A% 29.74 in 10.0 mi SSE 9.2 mph - 0.04 in   Overcast
9:34 AM - - N/A% 29.72 in 10.0 mi SSE 5.8 mph - 0.04 in   Overcast
9:54 AM - - N/A% 29.73 in 5.0 mi South 4.6 mph - 0.06 in Rain Light Rain
11:14 AM - - N/A% 29.73 in 10.0 mi SW 8.1 mph - 0.01 in   Overcast
11:35 AM - - N/A% 29.74 in 10.0 mi WSW 9.2 mph - 0.03 in   Overcast
12:14 PM - - N/A% 29.74 in 10.0 mi SSW 5.8 mph - 0.02 in   Overcast
12:36 PM - - N/A% 29.74 in 10.0 mi SSW 10.4 mph - 0.04 in   Overcast
12:54 PM - - N/A% 29.74 in 10.0 mi SW 12.7 mph 18.4 mph 0.05 in   Overcast
1:34 PM - - N/A% 29.75 in 10.0 mi SW 8.1 mph - 0.03 in   Overcast
1:55 PM - - N/A% 29.75 in 10.0 mi WSW 12.7 mph 18.4 mph 0.05 in   Overcast
2:14 PM - - N/A% 29.75 in 10.0 mi WSW 15.0 mph 19.6 mph 0.01 in   Overcast
2:56 PM - - N/A% 29.75 in 10.0 mi WSW 13.8 mph 17.3 mph 0.05 in   Overcast
3:34 PM - - N/A% 29.74 in 10.0 mi SW 9.2 mph - 0.03 in   Overcast
4:34 PM - - N/A% 29.72 in 10.0 mi SW 5.8 mph - 0.02 in   Mostly Cloudy
5:14 PM - - N/A% 29.72 in 10.0 mi SW 9.2 mph - 0.01 in   Mostly Cloudy
5:54 PM - - N/A% 29.71 in 10.0 mi SW 9.2 mph - 0.04 in   Mostly Cloudy
6:35 PM - - N/A% 29.71 in 10.0 mi SSW 6.9 mph - 0.02 in   Scattered Clouds
6:55 PM - - N/A% 29.71 in 10.0 mi SSW 6.9 mph - 0.03 in   Scattered Clouds
7:35 PM - - N/A% 29.71 in 10.0 mi SSW 5.8 mph - 0.02 in   Clear
7:54 PM - - N/A% 29.71 in 10.0 mi SSW 4.6 mph - 0.03 in   Clear
8:34 PM - - N/A% 29.71 in 10.0 mi South 4.6 mph - 0.02 in   Clear
8:56 PM - - N/A% 29.73 in 10.0 mi South 4.6 mph - 0.03 in   Clear
9:34 PM - - N/A% 29.74 in 10.0 mi South 4.6 mph - 0.02 in   Clear
9:54 PM - - N/A% 29.75 in 10.0 mi SSW 8.1 mph - 0.02 in   Clear
10:14 PM - - N/A% 29.76 in 10.0 mi SSW 6.9 mph - 0.01 in   Clear
10:34 PM - - N/A% 29.76 in 10.0 mi SSW 6.9 mph - 0.02 in   Clear
11:15 PM - - N/A% 29.77 in 10.0 mi SSW 4.6 mph - 0.01 in   Clear
11:34 PM - - N/A% 29.76 in 10.0 mi South 3.5 mph - 0.01 in   Scattered Clouds